This is the latest recevied weather packets stored in our database for station/object WE0DX-1. If no packets are shown the sender has not sent any weather packets the latest 10 day(s).
| Time | Temp. | Humidity | Pressure | Rain* | Wind** | Luminosity | Snow |
|---|---|---|---|---|---|---|---|
| 1777907008 | 21.67° C | 52% | 1003.1 hPa | 0 mm | - | 578 W/m² | - |
| 1777906706 | 21.11° C | 53% | 1002.8 hPa | 0 mm | - | 552 W/m² | - |
| 1777906401 | 21.11° C | 52% | 1003 hPa | 0 mm | - | 507 W/m² | - |
| 1777906098 | 21.11° C | 54% | 1002.8 hPa | 0 mm | - | 498 W/m² | - |
| 1777905795 | 21.11° C | 53% | 1003.2 hPa | 0 mm | - | 485 W/m² | - |
| 1777905493 | 21.11° C | 54% | 1003.1 hPa | 0 mm | - | 442 W/m² | - |
| 1777905189 | 20.56° C | 54% | 1003 hPa | 0 mm | - | 400 W/m² | - |
| 1777904887 | 20.56° C | 54% | 1003.1 hPa | 0 mm | - | 388 W/m² | - |
| 1777904583 | 20° C | 55% | 1003 hPa | 0 mm | - | 355 W/m² | - |
| 1777904280 | 20° C | 55% | 1003.3 hPa | 0 mm | - | 344 W/m² | - |
| 1777903978 | 20° C | 56% | 1003.1 hPa | 0 mm | - | 324 W/m² | - |
| 1777903674 | 20° C | 55% | 1003.2 hPa | 0 mm | - | 311 W/m² | - |
| 1777903370 | 20° C | 56% | 1003.2 hPa | 0 mm | - | 298 W/m² | - |
| 1777903067 | 20° C | 56% | 1003.3 hPa | 0 mm | - | 291 W/m² | - |
| 1777902763 | 19.44° C | 56% | 1003.4 hPa | 0 mm | - | 239 W/m² | - |
| 1777902461 | 19.44° C | 56% | 1003.3 hPa | 0 mm | - | 240 W/m² | - |
| 1777902157 | 19.44° C | 57% | 1003.4 hPa | 0 mm | - | 230 W/m² | - |
| 1777901856 | 18.89° C | 58% | 1003.4 hPa | 0 mm | - | 195 W/m² | - |
| 1777901553 | 18.89° C | 58% | 1003.3 hPa | 0 mm | - | 132 W/m² | - |
| 1777901250 | 18.89° C | 59% | 1003.5 hPa | 0 mm | - | 58 W/m² | - |
| 1777900948 | 18.33° C | 59% | 1003.3 hPa | 0 mm | - | 109 W/m² | - |
| 1777900645 | 18.33° C | 60% | 1003.5 hPa | 0 mm | - | 52 W/m² | - |
| 1777900342 | 17.78° C | 59% | 1003.2 hPa | 0 mm | - | 82 W/m² | - |
| 1777900039 | 17.78° C | 59% | 1003.6 hPa | 0 mm | - | 53 W/m² | - |
| 1777899734 | 17.78° C | 61% | 1003 hPa | 0 mm | - | 54 W/m² | - |
* Rain latest hour (hover to see other rain measurements)
** Current wind speed in m/s (hover to see current wind gust speed)